SUNNYSIDE Weather Reports


Display with metric or nautical units.
time (UTC)temp
F
wind
direction
speed
MPH
gust
MPH
rain 1hr
in
rain 24hr
in
rain mn
in
humidity
%
barometer
mb
20260506024049 33 331 3.0 8.0 0.00 0.00 0.00 52 986.4
20260506023547 33 328 5.0 9.0 0.00 0.00 0.00 52 986.4
20260506023053 34 310 4.0 10.0 0.00 0.00 0.00 51 986.4
20260506022546 34 346 5.0 9.0 0.00 0.00 0.00 51 986.3
20260506022045 34 325 4.0 10.0 0.00 0.00 0.00 50 986.3
20260506021544 34 333 6.0 12.0 0.00 0.00 0.00 50 986.3
20260506021046 34 326 8.0 12.0 0.00 0.00 0.00 49 986.1
20260506020544 35 306 6.0 11.0 0.00 0.00 0.00 49 986.2
20260506020113 35 298 4.0 11.0 0.00 0.00 0.00 49 986.1
20260506015546 35 338 6.0 11.0 0.00 0.00 0.00 48 986.1
20260506015044 35 313 7.0 13.0 0.00 0.00 0.00 48 986.0
20260506014544 35 305 8.0 13.0 0.00 0.00 0.00 48 985.9
20260506014042 35 310 7.0 11.0 0.00 0.00 0.00 48 985.9
20260506013542 35 322 5.0 13.0 0.00 0.00 0.00 48 985.8
20260506013041 35 305 9.0 13.0 0.00 0.00 0.00 48 985.8
20260506012541 36 343 8.0 14.0 0.00 0.00 0.00 48 985.8
20260506012041 36 341 8.0 15.0 0.00 0.00 0.00 48 985.7
20260506011545 36 328 10.0 15.0 0.00 0.00 0.00 48 985.6
20260506011040 36 316 8.0 14.0 0.00 0.00 0.00 48 985.7
20260506010539 36 344 8.0 14.0 0.00 0.00 0.00 48 985.6
20260506010039 36 295 8.0 14.0 0.00 0.00 0.00 48 985.6
20260506005539 36 340 8.0 16.0 0.00 0.00 0.00 47 985.5
20260506005038 36 335 8.0 16.0 0.00 0.00 0.00 47 985.4
20260506004542 36 319 9.0 17.0 0.00 0.00 0.00 47 985.4
20260506004037 36 324 11.0 20.0 0.00 0.00 0.00 46 985.4
20260506003537 36 303 10.0 18.0 0.00 0.00 0.00 46 985.3
20260506003038 36 341 9.0 18.0 0.00 0.00 0.00 46 985.3
20260506002538 36 282 9.0 16.0 0.00 0.00 0.00 47 985.3
20260506002037 36 336 10.0 16.0 0.00 0.00 0.00 47 985.3
20260506001545 36 301 10.0 18.0 0.00 0.00 0.00 47 985.3
20260506001036 37 303 12.0 18.0 0.00 0.00 0.00 46 985.3
20260506000536 37 321 12.0 21.0 0.00 0.00 0.00 46 985.2
20260506000052 37 336 9.0 17.0 0.00 0.00 0.00 46 985.3
20260505235538 37 304 11.0 18.0 0.00 0.00 0.00 45 985.2
20260505235037 37 309 12.0 18.0 0.00 0.00 0.00 44 985.2
20260505234540 37 307 11.0 17.0 0.00 0.00 0.00 44 985.2
20260505234034 37 320 11.0 16.0 0.00 0.00 0.00 43 985.0
20260505233533 37 311 9.0 16.0 0.00 0.00 0.00 44 985.1
20260505233034 37 299 9.0 16.0 0.00 0.00 0.00 44 985.0
20260505232537 37 297 9.0 16.0 0.00 0.00 0.00 44 985.1
20260505232033 37 327 6.0 15.0 0.00 0.00 0.00 45 985.0
20260505231532 37 12 4.0 14.0 0.00 0.00 0.00 44 985.1
20260505231033 37 17 6.0 14.0 0.00 0.00 0.00 45 985.1
20260505230532 37 344 6.0 14.0 0.00 0.00 0.00 45 985.2
20260505230041 37 40 7.0 14.0 0.00 0.00 0.00 45 985.1
20260505225532 37 351 9.0 14.0 0.00 0.00 0.00 45 985.1
20260505225032 37 336 10.0 14.0 0.00 0.00 0.00 45 985.0
20260505224542 37 350 8.0 16.0 0.00 0.00 0.00 45 985.0
20260505224031 37 330 11.0 17.0 0.00 0.00 0.00 45 985.1
20260505223531 37 320 10.0 17.0 0.00 0.00 0.00 46 985.1
20260505223037 37 350 9.0 16.0 0.00 0.00 0.00 46 985.1
20260505222532 37 292 11.0 19.0 0.00 0.00 0.00 45 985.0
20260505222033 37 323 11.0 19.0 0.00 0.00 0.00 45 984.9
20260505221531 37 302 10.0 19.0 0.00 0.00 0.00 45 984.9
20260505221030 37 300 11.0 19.0 0.00 0.00 0.00 45 984.8
20260505220530 38 321 10.0 17.0 0.00 0.00 0.00 45 984.7
20260505220029 38 322 11.0 17.0 0.00 0.00 0.00 46 984.8
20260505215530 37 351 7.0 17.0 0.00 0.00 0.00 47 984.8
20260505215027 36 317 12.0 18.0 0.00 0.00 0.00 47 984.9
20260505214527 36 318 11.0 18.0 0.00 0.00 0.00 47 985.0
20260505214029 36 316 10.0 16.0 0.00 0.00 0.00 47 985.0
20260505213525 36 312 9.0 17.0 0.00 0.00 0.00 48 985.0
20260505213028 36 319 11.0 19.0 0.00 0.00 0.00 47 984.9
20260505212526 36 346 13.0 19.0 0.00 0.00 0.00 47 984.9
20260505212026 36 319 10.0 20.0 0.00 0.00 0.00 47 984.8
20260505211531 36 12 10.0 20.0 0.00 0.00 0.00 46 984.8
20260505211025 37 310 9.0 16.0 0.00 0.00 0.00 46 984.6
20260505210524 36 311 9.0 19.0 0.00 0.00 0.00 47 984.7
20260505210024 36 309 11.0 19.0 0.00 0.00 0.00 46 984.5
20260505205530 36 298 8.0 20.0 0.00 0.00 0.00 47 984.6
20260505205027 35 331 13.0 20.0 0.00 0.00 0.00 47 984.7
20260505204523 36 360 10.0 19.0 0.00 0.00 0.00 48 984.6
20260505204026 35 340 11.0 19.0 0.00 0.00 0.00 48 984.7
20260505203522 36 297 11.0 18.0 0.00 0.00 0.00 47 984.7
20260505203023 35 326 11.0 19.0 0.00 0.00 0.00 48 984.7
20260505202523 36 304 9.0 19.0 0.00 0.00 0.00 49 984.6
20260505202028 36 302 12.0 19.0 0.00 0.00 0.00 47 984.7
20260505201520 35 355 10.0 19.0 0.00 0.00 0.00 48 984.6
20260505201021 35 10 11.0 18.0 0.00 0.00 0.00 47 984.6
20260505200521 35 313 10.0 20.0 0.00 0.00 0.00 46 984.6
20260505200022 35 300 11.0 20.0 0.00 0.00 0.00 45 984.7
20260505195520 35 13 12.0 20.0 0.00 0.00 0.00 45 984.5
20260505195020 36 343 11.0 19.0 0.00 0.00 0.00 44 984.5
20260505194519 35 311 11.0 19.0 0.00 0.00 0.00 46 984.4
20260505194021 35 318 12.0 21.0 0.00 0.00 0.00 45 984.6
20260505193517 35 292 11.0 21.0 0.00 0.00 0.00 45 984.6
20260505193016 34 322 10.0 19.0 0.00 0.00 0.00 45 984.6
20260505192518 35 303 11.0 19.0 0.00 0.00 0.00 44 984.6
20260505192016 35 338 10.0 23.0 0.00 0.00 0.00 46 984.5
20260505191518 34 346 11.0 17.0 0.00 0.00 0.00 46 984.5
20260505191014 34 317 13.0 19.0 0.00 0.00 0.00 47 984.6
20260505190512 33 318 13.0 20.0 0.00 0.00 0.00 47 984.4
20260505190013 33 294 11.0 19.0 0.00 0.00 0.00 46 984.4
20260505185513 33 319 13.0 19.0 0.00 0.00 0.00 47 984.4
20260505185012 33 299 13.0 19.0 0.00 0.00 0.00 46 984.3
20260505184512 34 338 12.0 19.0 0.00 0.00 0.00 46 984.3
20260505184011 34 298 13.0 17.0 0.00 0.00 0.00 46 984.3
20260505183514 34 298 11.0 16.0 0.00 0.00 0.00 46 984.3
20260505183013 33 304 11.0 20.0 0.00 0.00 0.00 45 984.2
20260505182513 33 346 11.0 20.0 0.00 0.00 0.00 46 984.3
20260505182013 33 307 12.0 17.0 0.00 0.00 0.00 46 984.2
20260505181509 33 307 11.0 18.0 0.00 0.00 0.00 47 984.2
20260505181008 33 339 12.0 18.0 0.00 0.00 0.00 48 984.3
20260505180507 33 313 10.0 18.0 0.00 0.00 0.00 48 984.4
20260505180007 32 318 12.0 18.0 0.00 0.00 0.00 48 984.3
20260505175507 32 307 12.0 19.0 0.00 0.00 0.00 48 984.4
20260505175009 32 315 12.0 19.0 0.00 0.00 0.00 50 984.4
20260505174506 32 309 12.0 20.0 0.00 0.00 0.00 50 984.3
20260505174010 32 318 13.0 20.0 0.00 0.00 0.00 49 984.2
20260505173505 32 320 11.0 20.0 0.00 0.00 0.00 49 984.2
20260505173004 32 289 14.0 20.0 0.00 0.00 0.00 48 984.1
20260505172503 32 340 12.0 19.0 0.00 0.00 0.00 48 984.0
20260505172003 33 291 13.0 19.0 0.00 0.00 0.00 47 984.0
20260505171502 32 331 11.0 20.0 0.00 0.00 0.00 48 983.9
20260505171002 32 309 12.0 20.0 0.00 0.00 0.00 47 984.0
20260505170501 32 324 10.0 19.0 0.00 0.00 0.00 49 983.9
20260505170002 32 297 11.0 21.0 0.00 0.00 0.00 48 983.9
20260505165501 32 321 12.0 21.0 0.00 0.00 0.00 46 983.8
20260505165001 32 306 12.0 21.0 0.00 0.00 0.00 47 983.9
20260505164601 31 299 12.0 21.0 0.00 0.00 0.00 47 983.9
20260505164101 31 333 13.0 22.0 0.00 0.00 0.00 47 983.8
20260505163604 31 315 13.0 22.0 0.00 0.00 0.00 47 983.9
20260505163101 31 320 12.0 21.0 0.00 0.00 0.00 48 983.9
20260505162600 31 322 13.0 21.0 0.00 0.00 0.00 48 983.9
20260505162100 32 304 12.0 18.0 0.00 0.00 0.00 48 983.7
20260505161558 32 303 11.0 20.0 0.00 0.00 0.00 47 983.6
20260505161059 32 291 12.0 20.0 0.00 0.00 0.00 46 983.5
20260505160557 32 306 9.0 19.0 0.00 0.00 0.00 46 983.5
20260505153057 31 342 13.0 19.0 0.00 0.00 0.00 48 983.3
20260505152555 31 288 10.0 20.0 0.00 0.00 0.00 47 983.4
20260505152054 32 302 12.0 20.0 0.00 0.00 0.00 47 983.4
20260505151559 31 350 12.0 18.0 0.00 0.00 0.00 47 983.3
20260505151057 31 323 12.0 18.0 0.00 0.00 0.00 48 983.3
20260505150553 31 305 11.0 16.0 0.00 0.00 0.00 49 983.2
20260505140547 31 325 10.0 17.0 0.00 0.00 0.00 49 982.8
20260505125039 28 290 10.0 17.0 0.00 0.00 0.00 54 982.5
20260505124539 28 336 8.0 17.0 0.00 0.00 0.00 54 982.4
20260505124040 28 294 9.0 15.0 0.00 0.00 0.00 54 982.4
20260505123541 27 301 7.0 15.0 0.00 0.00 0.00 54 982.3
20260505123047 27 309 10.0 15.0 0.00 0.00 0.00 54 982.3
20260505122536 27 306 9.0 15.0 0.00 0.00 0.00 54 982.2
20260505122035 27 296 10.0 15.0 0.00 0.00 0.00 54 982.1
20260505121535 27 310 10.0 15.0 0.00 0.00 0.00 54 982.1
20260505121035 27 329 9.0 15.0 0.00 0.00 0.00 54 982.0
20260505120533 27 297 9.0 14.0 0.00 0.00 0.00 55 982.0
20260505120044 27 302 9.0 15.0 0.00 0.00 0.00 55 982.0
20260505115532 27 308 9.0 15.0 0.00 0.00 0.00 55 981.9
20260505115031 27 298 9.0 14.0 0.00 0.00 0.00 54 981.9
20260505114532 27 302 8.0 13.0 0.00 0.00 0.00 54 981.8
20260505114031 27 306 7.0 14.0 0.00 0.00 0.00 54 981.7
20260505113529 27 292 7.0 14.0 0.00 0.00 0.00 54 981.8
20260505113029 27 296 9.0 14.0 0.00 0.00 0.00 53 981.8
20260505112528 27 325 9.0 16.0 0.00 0.00 0.00 53 981.6
20260505112027 28 330 10.0 18.0 0.00 0.00 0.00 52 981.5
20260505111533 28 322 12.0 18.0 0.00 0.00 0.00 52 981.4
20260505111025 28 313 9.0 13.0 0.00 0.00 0.00 53 981.5
20260505110525 28 301 8.0 14.0 0.00 0.00 0.00 53 981.3
20260505102022 28 319 9.0 16.0 0.00 0.00 0.00 54 981.1
20260505101518 28 298 10.0 16.0 0.00 0.00 0.00 55 981.0
20260505101017 28 319 7.0 14.0 0.00 0.00 0.00 56 981.1
20260505100517 28 309 7.0 13.0 0.00 0.00 0.00 56 981.0
20260505100016 28 317 6.0 13.0 0.00 0.00 0.00 56 980.9
20260505095517 28 289 8.0 13.0 0.00 0.00 0.00 57 980.9
20260505095017 28 323 5.0 13.0 0.00 0.00 0.00 57 980.8
20260505094515 28 336 7.0 13.0 0.00 0.00 0.00 57 980.8
20260505094013 28 311 8.0 13.0 0.00 0.00 0.00 56 980.8
20260505093513 28 342 7.0 13.0 0.00 0.00 0.00 56 980.8
20260505093013 28 295 8.0 16.0 0.00 0.00 0.00 56 980.7
20260505092511 28 325 10.0 16.0 0.00 0.00 0.00 56 980.7
20260505092011 29 288 8.0 13.0 0.00 0.00 0.00 56 980.6
20260505091510 29 324 5.0 11.0 0.00 0.00 0.00 56 980.5
20260505091010 29 287 5.0 10.0 0.00 0.00 0.00 56 980.5
20260505090509 29 337 5.0 11.0 0.00 0.00 0.00 56 980.5
20260505090010 29 341 7.0 12.0 0.00 0.00 0.00 56 980.5
20260505085509 29 333 8.0 12.0 0.00 0.00 0.00 56 980.4
20260505085009 29 329 6.0 11.0 0.00 0.00 0.00 56 980.3
20260505084509 29 343 5.0 13.0 0.00 0.00 0.00 56 980.4
20260505084007 29 351 8.0 13.0 0.00 0.00 0.00 56 980.2
20260505083509 29 344 8.0 14.0 0.00 0.00 0.00 56 980.2
20260505083007 29 333 9.0 14.0 0.00 0.00 0.00 56 980.3
20260505082510 29 355 9.0 14.0 0.00 0.00 0.00 56 980.1
20260505082005 29 346 8.0 18.0 0.00 0.00 0.00 56 980.1
20260505081505 29 325 11.0 18.0 0.00 0.00 0.00 57 980.1
20260505081003 29 320 10.0 16.0 0.00 0.00 0.00 57 980.0
20260505080506 29 296 10.0 15.0 0.00 0.00 0.00 57 980.0
20260505080002 29 340 9.0 19.0 0.00 0.00 0.00 57 979.9
20260505075503 30 333 13.0 19.0 0.00 0.00 0.00 57 980.0
20260505075002 30 326 11.0 17.0 0.00 0.00 0.00 57 980.0
20260505074502 30 277 9.0 19.0 0.00 0.00 0.00 57 979.9
20260505074001 30 314 13.0 20.0 0.00 0.00 0.00 56 979.9
20260505073503 30 304 12.0 20.0 0.00 0.00 0.00 56 980.0
20260505073102 30 341 11.0 18.0 0.00 0.00 0.00 56 980.1
20260505072559 30 300 11.0 17.0 0.00 0.00 0.00 56 980.0
20260505072058 30 318 12.0 17.0 0.00 0.00 0.00 55 979.9
20260505071558 30 333 9.0 16.0 0.00 0.00 0.00 55 979.9
20260505071057 30 334 12.0 17.0 0.00 0.00 0.00 54 980.0
20260505070556 31 315 10.0 17.0 0.00 0.00 0.00 54 979.9
20260505070105 31 309 11.0 18.0 0.00 0.00 0.00 54 979.9
20260505065555 31 310 10.0 18.0 0.00 0.00 0.00 54 980.0
20260505065054 31 300 9.0 18.0 0.00 0.00 0.00 54 980.0
20260505064639 31 333 10.0 16.0 0.00 0.00 0.00 54 979.9
20260505064055 31 334 11.0 16.0 0.00 0.00 0.00 55 980.0
20260505063555 31 344 12.0 16.0 0.00 0.00 0.00 55 979.9
20260505063056 31 309 10.0 17.0 0.00 0.00 0.00 55 979.9
20260505062554 31 344 11.0 17.0 0.00 0.00 0.00 55 979.9
20260505062053 31 340 13.0 17.0 0.00 0.00 0.00 54 979.9
20260505061553 31 302 11.0 19.0 0.00 0.00 0.00 55 979.8
20260505061052 31 327 11.0 19.0 0.00 0.00 0.00 55 979.8
20260505060553 31 297 10.0 18.0 0.00 0.00 0.00 55 979.8
20260505060051 31 337 11.0 18.0 0.00 0.01 0.00 55 979.7
20260505055550 31 318 11.0 18.0 0.00 0.01 0.00 55 979.7
20260505055050 31 309 11.0 18.0 0.00 0.01 0.00 54 979.6
20260505054551 31 338 11.0 22.0 0.00 0.01 0.00 53 979.6
20260505054049 31 319 13.0 22.0 0.00 0.01 0.00 52 979.4
20260505053547 31 337 13.0 21.0 0.00 0.01 0.00 52 979.4
20260505053047 31 315 11.0 22.0 0.00 0.01 0.00 52 979.5
20260505052546 31 311 13.0 22.0 0.00 0.01 0.00 52 979.4
20260505052045 31 309 13.0 19.0 0.00 0.01 0.00 52 979.4
20260505051545 31 301 11.0 17.0 0.00 0.01 0.00 53 979.4
20260505051043 32 286 9.0 15.0 0.00 0.01 0.00 53 979.4
20260505050542 32 313 11.0 20.0 0.00 0.01 0.00 53 979.3
20260505041537 33 313 12.0 20.0 0.00 0.01 0.01 53 979.2
20260505041036 33 319 10.0 20.0 0.00 0.01 0.01 52 979.1
20260505040538 33 305 12.0 24.0 0.00 0.01 0.01 52 979.2
20260505040036 33 309 14.0 24.0 0.00 0.01 0.01 51 979.1
20260505035534 33 306 11.0 20.0 0.00 0.01 0.01 51 979.1
20260505035033 33 336 13.0 24.0 0.00 0.01 0.01 50 979.1
20260505034539 33 332 15.0 24.0 0.00 0.01 0.01 51 979.0
20260505034033 34 327 9.0 18.0 0.00 0.01 0.01 52 979.1
20260505033536 34 336 9.0 16.0 0.00 0.01 0.01 52 979.0
20260505033032 34 331 10.0 15.0 0.00 0.01 0.01 52 978.9
20260505032531 33 320 7.0 15.0 0.00 0.01 0.01 52 978.9
20260505032032 33 303 7.0 12.0 0.00 0.01 0.01 52 978.8
20260505031531 33 335 6.0 10.0 0.00 0.01 0.01 52 978.8
20260505031030 33 344 5.0 10.0 0.00 0.01 0.01 52 978.7
20260505030531 33 312 4.0 9.0 0.00 0.01 0.01 51 978.7
20260505030043 33 316 6.0 9.0 0.00 0.01 0.01 51 978.7
20260505025531 33 338 4.0 8.0 0.00 0.01 0.01 51 978.6
20260505025030 33 340 5.0 8.0 0.00 0.01 0.01 51 978.7
20260505024529 33 312 4.0 10.0 0.00 0.01 0.01 51 978.7